This demonstration page uses our WeatherBlox Daily Observations layout. Learn more.

Hourly Observations for April 9, 2019

Temp ( °F °C ) Dew Point ( °F °C ) Humidity (%) Winds ( mph kmh ) Pressure ( in mb ) Visibility ( mi km ) Precip ( " mm )
12:15 am 00:15 Clear 54 12.3 43 6.1 66 66 Calm 29.98 1015 10 16.0934 0 0
12:35 am 00:35 Clear 54 12.1 43 6 67 67 Calm 29.98 1015 10 16.0934 0 0
12:55 am 00:55 Clear 56 13.4 44 6.5 63 63 NE 3 6 29.97 1015 10 16.0934 0 0
1:15 am 01:15 Clear 54 12 44 6.5 69 69 NNE 3 6 30 1016 10 16.0934 0 0
1:35 am 01:35 Clear 53 11.6 43 6.1 69 69 NE 3 6 30 1016 10 16.0934 0 0
1:55 am 01:55 Clear 51 10.5 43 6.2 75 75 Calm 30 1016 10 16.0934 0 0
2:15 am 02:15 Clear 51 10.3 43 6.2 76 76 Calm 30 1016 10 16.0934 0 0
2:35 am 02:35 Clear 51 10.3 43 5.9 74 74 Calm 29.99 1016 10 16.0934 0 0
2:55 am 02:55 Clear 49 9.7 42 5.8 77 77 Calm 30 1016 10 16.0934 0 0
3:15 am 03:15 Clear 47 8.5 42 5.3 81 81 ENE 5 7 30 1016 10 16.0934 0 0
3:35 am 03:35 Clear 47 8.5 41 5 79 79 E 6 9 30 1016 10 16.0934 0 0
3:55 am 03:55 Clear 49 9.5 42 5.3 75 75 E 6 9 29.99 1015 10 16.0934 0 0
4:15 am 04:15 Clear 46 7.9 41 5 82 82 ENE 3 6 30 1016 10 16.0934 0 0
4:35 am 04:35 Clear 46 7.5 41 5 84 84 NE 3 6 30 1016 10 16.0934 0 0
4:55 am 04:55 Clear 44 6.6 40 4.7 88 88 Calm 30 1016 10 16.0934 0 0
5:15 am 05:15 Clear 41 5.1 39 3.8 91 91 E 5 7 30.01 1016 10 16.0934 0 0
5:35 am 05:35 Clear 43 6.2 41 4.8 91 91 Calm 30.01 1016 10 16.0934 0 0
5:55 am 05:55 Clear 44 6.8 41 5 88 88 NE 3 6 29.99 1016 10 16.0934 0 0
6:15 am 06:15 Clear 42 5.8 39 4.1 89 89 ENE 5 7 29.99 1016 10 16.0934 0 0
6:35 am 06:35 Clear 43 6.2 40 4.3 88 88 Calm 30 1016 10 16.0934 0 0
6:55 am 06:55 Clear 44 6.5 41 4.9 90 90 Calm 30 1016 10 16.0934 0 0
7:15 am 07:15 Sunny 40 4.5 38 3.2 91 91 Calm 30.01 1016 10 16.0934 0 0
7:35 am 07:35 Sunny 41 4.8 39 4.1 95 95 Calm 30.01 1016 10 16.0934 0 0
7:55 am 07:55 Sunny 42 5.6 40 4.7 94 94 E 3 6 30 1016 10 16.0934 0 0
8:15 am 08:15 Sunny 47 8.3 43 6.2 87 87 ESE 5 7 29.96 1014 10 16.0934 0 0
8:35 am 08:35 Sunny 51 10.5 44 6.6 77 77 SE 8 13 29.93 1013 10 16.0934 0 0
8:55 am 08:55 Sunny 52 10.9 44 6.5 75 75 ESE 7 11 29.92 1013 10 16.0934 0 0
9:15 am 09:15 Sunny 53 11.5 43 6.1 70 70 ESE 10 17 29.92 1013 10 16.0934 0 0
9:35 am 09:35 Sunny 54 12.3 44 6.5 68 68 ESE 9 15 29.9 1013 10 16.0934 0 0
9:55 am 09:55 Sunny 57 13.9 44 6.6 62 62 SE 13 20 29.88 1012 10 16.0934 0 0
10:15 am 10:15 Sunny 60 15.3 44 6.5 56 56 SE 14 22 29.86 1011 10 16.0934 0 0
10:35 am 10:35 Sunny 62 16.6 44 6.8 53 53 SE 16 26 29.85 1011 10 16.0934 0 0
10:55 am 10:55 Sunny 63 17 44 6.7 51 51 SE 17 28 29.83 1010 10 16.0934 0 0
11:15 am 11:15 Sunny 63 17.3 45 7.1 51 51 SSE 16 26 29.82 1010 10 16.0934 0 0
11:35 am 11:35 Sunny 66 18.7 46 7.6 49 49 SSE 15 24 29.8 1009 10 16.0934 0 0
11:55 am 11:55 Sunny 68 20 45 7.4 44 44 SSE 18 30 29.78 1008 10 16.0934 0 0
12:15 pm 12:15 Sunny 68 20.2 45 7.1 43 43 SSE 17 28 29.77 1008 10 16.0934 0 0
12:35 pm 12:35 Sunny 69 20.4 45 7.4 43 43 SSE 18 30 29.74 1007 10 16.0934 0 0
12:55 pm 12:55 Sunny 70 20.9 46 7.6 42 42 SSE 14 22 29.74 1007 10 16.0934 0 0
1:15 pm 13:15 Sunny 70 21 46 7.7 42 42 SSE 14 22 29.72 1006 10 16.0934 0 0
1:35 pm 13:35 Sunny 71 21.7 46 8 41 41 S 15 24 29.69 1006 10 16.0934 0 0
1:55 pm 13:55 Sunny 72 22.1 47 8.3 41 41 SSE 17 28 29.68 1005 10 16.0934 0 0
2:15 pm 14:15 Sunny 71 21.9 47 8.3 42 42 SSE 15 24 29.67 1005 10 16.0934 0 0
2:35 pm 14:35 Sunny 72 22.1 48 8.7 42 42 SSE 17 28 29.65 1004 10 16.0934 0 0
2:55 pm 14:55 Sunny 72 22 48 8.8 43 43 SSE 18 30 29.63 1003 10 16.0934 0 0
3:15 pm 15:15 Sunny 72 22.4 48 9.1 43 43 SSE 17 28 29.62 1003 10 16.0934 0 0
3:35 pm 15:35 Sunny 74 23.2 49 9.3 41 41 SSE 21 33 29.6 1002 10 16.0934 0 0
3:55 pm 15:55 Sunny 73 23 48 9.1 41 41 SSE 23 37 29.58 1002 10 16.0934 0 0
4:15 pm 16:15 Sunny 74 23.1 48 9.1 41 41 SSE 18 30 29.58 1002 10 16.0934 0 0
4:35 pm 16:35 Sunny 74 23.2 49 9.5 42 42 SSE 18 30 29.56 1001 10 16.0934 0 0
4:55 pm 16:55 Sunny 74 23.1 49 9.6 42 42 SSE 16 26 29.55 1001 10 16.0934 0 0
5:15 pm 17:15 Sunny 73 23 50 10.2 44 44 SSE 15 24 29.55 1001 10 16.0934 0 0
5:35 pm 17:35 Sunny 73 23 51 10.5 45 45 SE 15 24 29.54 1000 10 16.0934 0 0
5:55 pm 17:55 Sunny 73 23 51 10.7 46 46 SE 14 22 29.53 1000 10 16.0934 0 0
6:15 pm 18:15 Sunny 73 22.7 52 11.1 48 48 SE 14 22 29.54 1000 10 16.0934 0 0
6:35 pm 18:35 Sunny 72 22.2 53 11.4 51 51 ESE 15 24 29.53 1000 10 16.0934 0 0
6:55 pm 18:55 Sunny 71 21.5 53 11.6 53 53 ESE 10 17 29.54 1000 10 16.0934 0 0
7:15 pm 19:15 Sunny 70 21 53 11.9 56 56 ESE 10 17 29.54 1000 10 16.0934 0 0
7:35 pm 19:35 Sunny 68 19.9 54 12 61 61 E 10 17 29.55 1001 10 16.0934 0 0
7:55 pm 19:55 Sunny 66 18.8 53 11.8 64 64 E 12 19 29.55 1001 10 16.0934 0 0
8:15 pm 20:15 Clear 64 17.9 53 11.7 67 67 E 12 19 29.56 1001 10 16.0934 0 0
8:35 pm 20:35 Clear 64 17.5 53 11.6 69 69 ESE 12 19 29.55 1001 10 16.0934 0 0
8:55 pm 20:55 Clear 63 17.3 53 11.5 69 69 E 15 24 29.55 1001 10 16.0934 0 0
9:15 pm 21:15 Clear 64 17.5 53 11.4 68 68 E 16 26 29.55 1001 10 16.0934 0 0
9:35 pm 21:35 Clear 64 17.5 52 11.3 67 67 E 16 26 29.55 1001 10 16.0934 0 0
9:55 pm 21:55 Clear 63 17 52 11.3 69 69 E 15 24 29.55 1001 10 16.0934 0 0
10:15 pm 22:15 Clear 62 16.6 52 11.3 71 71 E 18 30 29.56 1001 10 16.0934 0 0
10:35 pm 22:35 Clear 62 16.5 52 11.1 71 71 ESE 18 30 29.55 1001 10 16.0934 0 0
10:55 pm 22:55 Clear 61 15.9 51 10.8 72 72 E 22 35 29.54 1000 10 16.0934 0 0
11:15 pm 23:15 Clear 59 15.2 51 10.7 75 75 E 16 26 29.55 1001 10 16.0934 0 0
11:35 pm 23:35 Clear 59 14.8 51 10.7 77 77 E 17 28 29.55 1001 10 16.0934 0 0
11:55 pm 23:55 Clear 58 14.5 51 10.6 78 78 E 17 28 29.54 1000 10 16.0934 0 0

Powered by AerisWeather